Tracking 19795 objects as of 20-Jul-2019
HD Live streaming from Space Station
objects crossing your sky now

COSMOS 1275 DEB

Track COSMOS 1275 DEB now!
10-day predictions


NORAD ID: 42205
Int'l Code: 1981-053TV
Perigee: 919.6 km
Apogee: 1,094.6 km
Inclination: 83.0 °
Period: 105.1 minutes
Semi major axis: 7378 km
RCS: Unknown
Launch date: June 4, 1981
Source: Commonwealth of Independent States (former USSR) (CIS)
Launch site: PLESETSK MISSILE AND SPACE COMPLEX (PKMTR)

Note: This is SATELLITE DEBRIS
aabbcc
Your satellite tracking list
Your tracking list is empty




NASA's NSSDC Master Catalog

Two Line Element Set (TLE):
1 42205U 81053TV  19200.69772101 +.00000430 +00000-0 +45028-3 0  9994
2 42205 083.0405 349.9269 0118593 166.1036 194.3431 13.69893869282512
Source of the keplerian elements: AFSPC